IRIDIUM 62 [B]

Last updated on Wed Oct 17 2018 00:08:17 GMT+0000 (Coordinated Universal Time)

1 25285U 98021A 18289.44248247 .00000168 00000-0 48479-4 0 9996 2 25285 86.4261 20.6636 0002155 102.0781 258.0659 14.38610599 74772
UTC large
Height (km)
Speed (km/s)
/
Latitude / Longitude
Inclination (degrees)
Orbital Period (minutes)
Azimuth
Elevation
Range (km)
Doppler Factor

Next 0 passes for location: London (51.5072 / 0.1276)

Sorry there are no passes over London.